Location: Wayah Bald
(35.1806°N, 83.5603°W)
Time: 16:35:18
(UTC-04:00)

Daily predictions for brighter satellites

Satellite Brightness Start Highest point End
(mag) Time Altitude Azimuth Time Altitude Azimuth Time Altitude Azimuth
Meteor 1-5 Rocket 4.4 20:56:07 10° N 21:02:01 90° E 21:07:59 10° S
Cosmos 2082 Rocket 3.1 20:57:50 10° SW 21:03:21 55° WNW 21:08:56 10° NNE
USA 238 DEB 3.8 20:58:23 10° SSW 21:05:14 90° SSW 21:12:12 10° NNE
USA 238 3.8 20:58:30 10° SSW 21:05:20 89° SE 21:12:18 10° NNE
GPS 2-04 Rocket1 2.8 21:01:30 10° W 21:05:42 84° SSW 21:09:58 10° ESE
Delta 168 4.3 21:05:09 10° SW 21:07:25 16° S 21:09:29 10° SE
Tiangong 2 1.0 21:04:56 10° WSW 21:08:05 84° SSE 21:11:14 10° ENE
Cosmos 2322 Rocket 4.2 21:06:00 10° NNE 21:08:42 13° NE 21:11:23 10° E
Cosmos 2061 Rocket 4.1 21:03:51 10° S 21:10:15 84° E 21:16:38 10° N
Cosmos 909 Rocket 4.3 21:07:01 10° NNW 21:13:26 76° ENE 21:20:53 10° SSE
SL-16 R/B 4.0 21:13:10 10° NNE 21:16:47 17° NE 21:20:23 10° E
Cosmos 1536 3.4 21:13:28 10° NNW 21:17:29 60° W 21:21:29 10° S
USA 186 1.7 21:14:25 10° SSE 21:17:31 80° ENE 21:20:49 10° N
Cosmos 2278 4.4 21:16:20 10° NNW 21:21:52 56° WSW 21:27:23 10° S
Cosmos 2016 Rocket 4.0 21:16:22 10° S 21:22:28 89° E 21:28:37 10° N
Cosmos 1570 Rocket 4.2 21:17:35 10° S 21:22:44 53° ESE 21:27:57 10° NNE
Atlas Centaur 2 1.7 21:19:15 10° WSW 21:22:56 39° S 21:25:52 13° ESE
Gblst 52 Del rocket 4.5 21:20:17 10° NW 21:25:45 60° SW 21:31:04 11° SSE
ATLAS CENTAUR R/B 1.9 21:22:19 10° NNW 21:26:52 60° ENE 21:31:05 13° SE
Resurs 1-3 3.6 21:25:20 10° SSE 21:29:41 73° ENE 21:34:04 10° N
Cosmos 1975 3.9 21:26:24 10° NNE 21:29:53 27° ENE 21:32:28 15° SE
SJ-6B 4.2 21:28:01 10° SSW 21:31:27 35° W 21:34:54 10° NNW
Cosmos 1725 Rocket 3.9 21:27:24 10° S 21:33:33 79° E 21:39:46 10° N
Cosmos 2360 4.2 21:28:08 10° NNW 21:33:51 72° ENE 21:39:11 12° SSE
Tsikada Rocket 4.2 21:27:40 10° N 21:33:59 57° E 21:40:16 10° SSE
SL-24 R/B 4.4 21:29:23 10° SSE 21:34:11 73° E 21:39:18 10° N
NOSS 3-2 (A) 3.4 21:32:07 10° SSW 21:37:54 89° NW 21:44:17 10° NNE
USA 234 3.5 21:34:57 10° NE 21:41:30 77° NW 21:48:04 10° SW
NOSS 3-2 (C) 3.3 21:36:52 10° SSW 21:42:36 70° ESE 21:48:54 10° NE
H-2A R/B 3.3 21:41:39 15° ESE 21:44:18 24° ENE 21:48:14 10° NNE
YAOGAN 6 4.0 21:43:11 10° SSW 21:46:40 39° W 21:50:09 10° NNW
ERS-1 Rocket 4.4 21:47:52 16° ESE 21:50:15 22° ENE 21:54:03 10° NNE
Cosmos 1697 Rocket 3.7 21:44:56 10° NW 21:50:16 43° WSW 21:55:34 10° S
Cosmos 1898 Rocket 4.3 21:46:03 10° N 21:50:57 37° ENE 21:53:56 21° ESE
Cosmos 2208 Rocket 3.9 21:46:45 10° SSW 21:51:57 89° ESE 21:57:09 10° NNE
Cosmos 1814 Rocket 4.5 21:48:57 10° SSE 21:53:41 39° E 21:58:34 10° NE
Cosmos 1500 4.3 21:50:37 10° NNW 21:54:18 44° W 21:57:59 10° SSW
Cosmos 1378 Rocket 4.0 21:53:13 10° SSW 21:57:30 62° W 22:01:46 10° N
Cosmos 1975 Rocket 3.1 21:55:11 15° S 21:58:40 57° E 22:02:55 10° NNE
Cosmos 2360 Rocket 4.1 21:56:41 10° NNE 21:59:58 16° NE 22:02:36 12° E
ATLAS CENTAUR R/B 3.9 21:55:42 10° SW 22:01:11 88° NW 22:18:12 10° NE
Okean 1 Rocket 3.2 21:58:07 10° N 22:02:28 74° W 22:06:01 15° S
Cosmos 1980 Rocket 2.6 21:57:31 10° NNW 22:03:06 63° WSW 22:07:51 15° S
Okean 1 4.1 21:59:14 10° SSW 22:03:11 52° W 22:07:10 10° N
Cosmos 1242 Rocket 2.9 22:01:14 10° N 22:04:45 45° E 22:05:47 34° SE
Cosmos 1666 2.6 22:05:20 10° N 22:09:13 74° E 22:10:56 31° SSE
CENTAUR R/B 2.6 22:04:14 10° S 22:09:40 47° ESE 22:15:50 10° NE
CZ-4B DEB 4.4 22:11:01 32° S 22:12:32 84° WSW 22:16:03 10° NNW
ERS-2 4.2 22:09:31 10° SSW 22:12:36 25° W 22:15:41 10° NW
deb Kosmos-1763 4.3 22:10:24 10° SSW 22:14:05 68° WNW 22:17:47 10° NNE
Cosmos 2233 Rocket 4.1 22:08:51 10° S 22:14:58 77° W 22:21:10 10° N
Cosmos 1743 2.6 22:12:22 10° N 22:16:12 84° E 22:17:40 36° S
Resurs 01 Rocket 3.2 22:12:35 10° SSW 22:16:31 32° W 22:20:29 10° NNW
Cosmos 1544 Rocket 4.3 22:15:13 10° NNE 22:19:16 34° ENE 22:20:00 32° E
ISS -0.6 22:18:33 10° WNW 22:20:37 16° NNW 22:22:42 10° N
ATLAS 3B R/B 4.4 22:15:20 10° WSW 22:21:52 36° NW 22:28:11 10° NNE
Iridium 2 3.6 22:21:42 35° S 22:23:14 89° ESE 22:27:05 10° N
Helios 1A 4.2 22:22:56 25° E 22:23:19 26° ENE 22:26:46 10° NNE
Meteor 2-4 Rocket 3.6 22:22:14 24° S 22:25:27 68° E 22:30:57 10° NNE
BREEZE-M DEB (TANK) 2.2 22:23:34 10° WNW 22:25:21 38° W 22:25:21 38° W
EPKM 4.1 22:24:21 10° WSW 22:26:53 16° SSW 22:26:53 16° SSW
Cosmos 1833 4.4 22:25:17 28° SSE 22:28:02 50° ESE 22:33:32 10° NNE
MetOp-A 4.1 22:26:41 31° SSE 22:29:22 86° ENE 22:34:45 10° NNW
Abrixas rocket 4.5 22:27:19 10° W 22:30:05 26° NNW 22:32:51 10° NNE
Cosmos 1536 Rocket 4.1 22:31:59 38° E 22:32:00 38° E 22:36:08 10° NNE
SJ 16-02 3.3 22:32:10 10° NNE 22:34:57 16° ENE 22:35:06 16° ENE
Cosmos 2084 4.3 22:31:29 10° SW 22:35:44 50° NW 22:39:47 10° NNE
Aureole 2 Rocket 4.2 22:33:39 10° NNE 22:34:51 17° NE 22:34:51 17° NE
Cosmos 1340 Rocket 2.7 22:38:31 64° SSE 22:39:01 75° E 22:43:05 10° NNE
Cosmos 2298 Rocket 4.1 22:37:35 10° N 22:42:51 63° ENE 22:44:06 48° SE
Tiangong 2 3.3 22:42:22 10° WNW 22:45:03 25° NNW 22:46:40 17° NNE
GPS 2-04 Rocket1 3.8 22:41:23 10° W 22:44:56 34° SW 22:44:56 34° SW
Cosmos 1515 4.0 22:49:22 56° NE 22:49:22 56° NE 22:52:38 10° NNE
Cosmos 1937 Rocket 3.4 22:46:54 10° NNW 22:52:03 82° WSW 22:53:17 53° S
Cosmos 292 Rocket 3.8 22:51:03 34° SSW 22:53:06 78° WNW 22:57:52 10° NNE
Cosmos 2322 Rocket 2.1 22:47:46 10° NNW 22:53:23 79° WSW 22:55:00 48° S
USA 32 4.0 22:49:04 10° N 22:54:19 82° W 22:55:51 47° S
Cosmos 540 Rocket 3.4 22:54:43 60° SE 22:55:16 64° ESE 23:00:24 10° NNE
ARGOS 3.7 22:53:02 29° SSW 22:55:30 52° W 23:00:47 10° NNW
Cosmos 1513 Rocket 4.3 22:55:40 38° S 22:58:09 87° E 23:04:19 10° N
Cosmos 2034 Rocket 3.9 22:56:40 47° SSE 22:58:25 70° E 23:04:32 10° NNE
OAO 1 Rocket 4.3 22:53:59 10° W 22:59:20 90° NNE 23:00:37 54° E
Cosmos 841 Rocket 3.9 22:57:37 20° SSW 23:01:12 62° WNW 23:06:26 10° N
SL-16 R/B 2.4 22:55:44 10° NNW 23:01:20 63° WSW 23:02:56 45° SSW
Cosmos 1464 Rocket 4.1 22:59:58 30° SSW 23:03:19 77° W 23:09:44 10° N
Helios 1B rocket 2.8 23:00:00 10° NNE 23:03:22 55° NE 23:03:22 55° NE
ATLAS CENTAUR R/B 4.1 23:03:14 10° W 23:05:25 13° WSW 23:07:21 11° SW
Meteor 1-15 Rocket 4.2 23:00:43 10° N 23:06:24 61° E 23:07:01 58° ESE
IGS 5A 4.5 23:07:25 36° NE 23:07:25 36° NE 23:10:31 10° N
USA 245 4.1 23:09:36 43° WNW 23:09:36 43° WNW 23:12:39 10° NNW
Atlas Centaur 2 3.7 23:08:09 10° WSW 23:08:30 12° WSW 23:08:30 12° WSW
Cosmos 2219 4.5 23:16:52 26° ENE 23:16:52 26° ENE 23:20:04 10° NE
SPOT 1/Viking Rocket 3.4 23:19:06 74° SSW 23:19:30 81° WSW 23:24:42 10° NNW
H-2A R/B 3.2 23:22:16 28° SW 23:23:31 32° W 23:27:59 10° NW
Cosmos 1025 Rocket 3.9 23:25:46 43° NNE 23:25:46 43° NNE 23:28:48 10° NNE
Landsat 7 3.8 23:27:10 77° NW 23:27:10 77° NW 23:31:39 10° NNW
Cosmos 1634 Rocket 4.4 23:27:48 46° E 23:27:48 46° E 23:33:35 10° NNE
ERS-1 Rocket 4.0 23:27:52 33° WSW 23:28:46 36° W 23:33:23 10° NNW
Cosmos 1455 Rocket 4.4 23:26:02 10° NNW 23:29:55 32° W 23:30:11 32° W
SPOT 5 3.2 23:30:59 51° W 23:30:59 51° W 23:34:59 10° NNW
CZ-4C R/B 3.8 23:34:38 10° NNW 23:41:27 40° NE 23:43:41 34° E
Cosmos 2360 Rocket 2.2 23:38:52 10° NNW 23:44:22 69° W 23:44:22 69° W
Terra 2.2 23:46:26 60° NNW 23:46:26 60° NNW 23:50:22 10° NNW
Cosmos 1125 Rocket 3.7 23:41:07 10° NNW 23:45:40 63° NNE 23:45:40 63° NNE
SL-19 R/B 4.5 23:47:14 67° SW 23:47:40 70° WSW 23:54:01 10° NNW
Cosmos 2219 Rocket 3.2 23:44:50 10° N 23:49:36 34° NE 23:49:36 34° NE
CZ-2C R/B 3.0 23:47:26 10° NNE 23:52:08 59° NE 23:52:08 59° NE
Lacrosse 5 rocket 3.1 23:50:42 10° NNW 23:53:13 31° N 23:53:13 31° N
